Year,Month,Day,Hour,Minute,Value (Times are PST for temperature in C)
2008,07,21,00,00,14.50
2008,07,21,00,01,14.50
2008,07,21,00,02,14.50
2008,07,21,00,03,14.50
2008,07,21,00,04,14.40
2008,07,21,00,05,14.50
2008,07,21,00,06,14.40
2008,07,21,00,07,14.40
2008,07,21,00,08,14.40
2008,07,21,00,09,14.40
2008,07,21,00,10,14.40
2008,07,21,00,11,14.40
2008,07,21,00,12,14.40
2008,07,21,00,13,14.40
2008,07,21,00,14,14.40
2008,07,21,00,15,14.40
2008,07,21,00,16,14.40
2008,07,21,00,17,14.40
2008,07,21,00,18,14.40
2008,07,21,00,19,14.40
2008,07,21,00,20,14.40
2008,07,21,00,21,14.40
2008,07,21,00,22,14.40
2008,07,21,00,23,14.40
2008,07,21,00,24,14.40
2008,07,21,00,25,14.40
2008,07,21,00,26,14.40
2008,07,21,00,27,14.40
2008,07,21,00,28,14.40
2008,07,21,00,29,14.40
2008,07,21,00,30,14.40
2008,07,21,00,31,14.40
2008,07,21,00,32,14.40
2008,07,21,00,33,14.40
2008,07,21,00,34,14.40
2008,07,21,00,35,14.40
2008,07,21,00,36,14.40
2008,07,21,00,37,14.40
2008,07,21,00,38,14.40
2008,07,21,00,39,14.40
2008,07,21,00,40,14.40
2008,07,21,00,41,14.40
2008,07,21,00,42,14.40
2008,07,21,00,43,14.40
2008,07,21,00,44,14.40
2008,07,21,00,45,14.40
2008,07,21,00,46,14.40
2008,07,21,00,47,14.40
2008,07,21,00,48,14.30
2008,07,21,00,49,14.30
2008,07,21,00,50,14.30
2008,07,21,00,51,14.30
2008,07,21,00,52,14.30
2008,07,21,00,53,14.30
2008,07,21,00,54,14.30
2008,07,21,00,55,14.30
2008,07,21,00,56,14.30
2008,07,21,00,57,14.30
2008,07,21,00,58,14.40
2008,07,21,00,59,14.40
2008,07,21,01,00,14.40
2008,07,21,01,01,14.40
2008,07,21,01,02,14.40
2008,07,21,01,03,14.40
2008,07,21,01,04,14.40
2008,07,21,01,05,14.40
2008,07,21,01,06,14.50
2008,07,21,01,07,14.50
2008,07,21,01,08,14.50
2008,07,21,01,09,14.60
2008,07,21,01,10,14.60
2008,07,21,01,11,14.60
2008,07,21,01,12,14.60
2008,07,21,01,13,14.60
2008,07,21,01,14,14.60
2008,07,21,01,15,14.60
2008,07,21,01,16,14.60
2008,07,21,01,17,14.60
2008,07,21,01,18,14.60
2008,07,21,01,19,14.50
2008,07,21,01,20,14.50
2008,07,21,01,21,14.40
2008,07,21,01,22,14.40
2008,07,21,01,23,14.40
2008,07,21,01,24,14.30
2008,07,21,01,25,14.30
2008,07,21,01,26,14.30
2008,07,21,01,27,14.40
2008,07,21,01,28,14.40
2008,07,21,01,29,14.40
2008,07,21,01,30,14.40
2008,07,21,01,31,14.40
2008,07,21,01,32,14.40
2008,07,21,01,33,14.30
2008,07,21,01,34,14.30
2008,07,21,01,35,14.30
2008,07,21,01,36,14.30
2008,07,21,01,37,14.30
2008,07,21,01,38,14.30
2008,07,21,01,39,14.30
2008,07,21,01,40,14.30
2008,07,21,01,41,14.30
2008,07,21,01,42,14.30
2008,07,21,01,43,14.30
2008,07,21,01,44,14.30
2008,07,21,01,45,14.40
2008,07,21,01,46,14.40
2008,07,21,01,47,14.40
2008,07,21,01,48,14.40
2008,07,21,01,49,14.50
2008,07,21,01,50,14.50
2008,07,21,01,51,14.50
2008,07,21,01,52,14.60
2008,07,21,01,53,14.60
2008,07,21,01,54,14.70
2008,07,21,01,55,14.70
2008,07,21,01,56,14.80
2008,07,21,01,57,14.80
2008,07,21,01,58,14.80
2008,07,21,01,59,14.90
2008,07,21,02,00,14.90
2008,07,21,02,01,15.00
2008,07,21,02,02,15.00
2008,07,21,02,03,15.00
2008,07,21,02,04,15.00
2008,07,21,02,05,15.00
2008,07,21,02,06,15.00
2008,07,21,02,07,15.00
2008,07,21,02,08,14.90
2008,07,21,02,09,14.90
2008,07,21,02,10,14.80
2008,07,21,02,11,14.80
2008,07,21,02,12,14.80
2008,07,21,02,13,14.70
2008,07,21,02,14,14.70
2008,07,21,02,15,14.70
2008,07,21,02,16,14.60
2008,07,21,02,17,14.60
2008,07,21,02,18,14.50
2008,07,21,02,19,14.40
2008,07,21,02,20,14.40
2008,07,21,02,21,14.30
2008,07,21,02,22,14.30
2008,07,21,02,23,14.20
2008,07,21,02,24,14.20
2008,07,21,02,25,14.10
2008,07,21,02,26,14.10
2008,07,21,02,27,14.00
2008,07,21,02,28,14.00
2008,07,21,02,29,13.90
2008,07,21,02,30,13.90
2008,07,21,02,31,13.90
2008,07,21,02,32,13.90
2008,07,21,02,33,13.80
2008,07,21,02,34,13.80
2008,07,21,02,35,13.80
2008,07,21,02,36,13.80
2008,07,21,02,37,13.80
2008,07,21,02,38,13.80
2008,07,21,02,39,13.80
2008,07,21,02,40,13.80
2008,07,21,02,41,13.80
2008,07,21,02,42,13.80
2008,07,21,02,43,13.80
2008,07,21,02,44,13.80
2008,07,21,02,45,13.80
2008,07,21,02,46,13.80
2008,07,21,02,47,13.80
2008,07,21,02,48,13.80
2008,07,21,02,49,13.80
2008,07,21,02,50,13.80
2008,07,21,02,51,13.80
2008,07,21,02,52,13.80
2008,07,21,02,53,13.80
2008,07,21,02,54,13.80
2008,07,21,02,55,13.80
2008,07,21,02,56,13.80
2008,07,21,02,57,13.80
2008,07,21,02,58,13.80
2008,07,21,02,59,13.80
2008,07,21,03,00,13.80
2008,07,21,03,01,13.70
2008,07,21,03,02,13.70
2008,07,21,03,03,13.70
2008,07,21,03,04,13.70
2008,07,21,03,05,13.70
2008,07,21,03,06,13.70
2008,07,21,03,07,13.70
2008,07,21,03,08,13.70
2008,07,21,03,09,13.70
2008,07,21,03,10,13.70
2008,07,21,03,11,13.70
2008,07,21,03,12,13.60
2008,07,21,03,13,13.60
2008,07,21,03,14,13.60
2008,07,21,03,15,13.50
2008,07,21,03,16,13.50
2008,07,21,03,17,13.50
2008,07,21,03,18,13.40
2008,07,21,03,19,13.40
2008,07,21,03,20,13.40
2008,07,21,03,21,13.40
2008,07,21,03,22,13.40
2008,07,21,03,23,13.30
2008,07,21,03,24,13.30
2008,07,21,03,25,13.30
2008,07,21,03,26,13.30
2008,07,21,03,27,13.20
2008,07,21,03,28,13.20
2008,07,21,03,29,13.20
2008,07,21,03,30,13.10
2008,07,21,03,31,13.10
2008,07,21,03,32,13.10
2008,07,21,03,33,13.00
2008,07,21,03,34,13.00
2008,07,21,03,35,13.00
2008,07,21,03,36,12.90
2008,07,21,03,37,12.90
2008,07,21,03,38,12.90
2008,07,21,03,39,12.80
2008,07,21,03,40,12.80
2008,07,21,03,41,12.80
2008,07,21,03,42,12.80
2008,07,21,03,43,12.70
2008,07,21,03,44,12.70
2008,07,21,03,45,12.70
2008,07,21,03,46,12.60
2008,07,21,03,47,12.60
2008,07,21,03,48,12.60
2008,07,21,03,49,12.50
2008,07,21,03,50,12.50
2008,07,21,03,51,12.50
2008,07,21,03,52,12.40
2008,07,21,03,53,12.40
2008,07,21,03,54,12.40
2008,07,21,03,55,12.40
2008,07,21,03,56,12.30
2008,07,21,03,57,12.30
2008,07,21,03,58,12.30
2008,07,21,03,59,12.30
2008,07,21,04,00,12.30
2008,07,21,04,01,12.20
2008,07,21,04,02,12.20
2008,07,21,04,03,12.20
2008,07,21,04,04,12.20
2008,07,21,04,05,12.20
2008,07,21,04,06,12.20
2008,07,21,04,07,12.10
2008,07,21,04,08,12.10
2008,07,21,04,09,12.10
2008,07,21,04,10,12.10
2008,07,21,04,11,12.10
2008,07,21,04,12,12.10
2008,07,21,04,13,12.10
2008,07,21,04,14,12.00
2008,07,21,04,15,12.00
2008,07,21,04,16,12.00
2008,07,21,04,17,12.00
2008,07,21,04,18,11.90
2008,07,21,04,19,11.90
2008,07,21,04,20,11.90
2008,07,21,04,21,11.90
2008,07,21,04,22,11.90
2008,07,21,04,23,11.80
2008,07,21,04,24,11.80
2008,07,21,04,25,11.80
2008,07,21,04,26,11.80
2008,07,21,04,27,11.80
2008,07,21,04,28,11.80
2008,07,21,04,29,11.70
2008,07,21,04,30,11.70
2008,07,21,04,31,11.70
2008,07,21,04,32,11.70
2008,07,21,04,33,11.70
2008,07,21,04,34,11.70
2008,07,21,04,35,11.70
2008,07,21,04,36,11.60
2008,07,21,04,37,11.60
2008,07,21,04,38,11.60
2008,07,21,04,39,11.60
2008,07,21,04,40,11.60
2008,07,21,04,41,11.60
2008,07,21,04,42,11.50
2008,07,21,04,43,11.50
2008,07,21,04,44,11.50
2008,07,21,04,45,11.50
2008,07,21,04,46,11.40
2008,07,21,04,47,11.40
2008,07,21,04,48,11.40
2008,07,21,04,49,11.40
2008,07,21,04,50,11.40
2008,07,21,04,51,11.40
2008,07,21,04,52,11.40
2008,07,21,04,53,11.40
2008,07,21,04,54,11.40
2008,07,21,04,55,11.40
2008,07,21,04,56,11.30
2008,07,21,04,57,11.30
2008,07,21,04,58,11.30
2008,07,21,04,59,11.30
2008,07,21,05,00,11.30
2008,07,21,05,01,11.30
2008,07,21,05,02,11.30
2008,07,21,05,03,11.30
2008,07,21,05,04,11.30
2008,07,21,05,05,11.30
2008,07,21,05,06,11.30
2008,07,21,05,07,11.30
2008,07,21,05,08,11.30
2008,07,21,05,09,11.30
2008,07,21,05,10,11.30
2008,07,21,05,11,11.30
2008,07,21,05,12,11.20
2008,07,21,05,13,11.20
2008,07,21,05,14,11.20
2008,07,21,05,15,11.20
2008,07,21,05,16,11.20
2008,07,21,05,17,11.20
2008,07,21,05,18,11.20
2008,07,21,05,19,11.20
2008,07,21,05,20,11.20
2008,07,21,05,21,11.20
2008,07,21,05,22,11.20
2008,07,21,05,23,11.20
2008,07,21,05,24,11.20
2008,07,21,05,25,11.20
2008,07,21,05,26,11.20
2008,07,21,05,27,11.20
2008,07,21,05,28,11.20
2008,07,21,05,29,11.20
2008,07,21,05,30,11.20
2008,07,21,05,31,11.10
2008,07,21,05,32,11.10
2008,07,21,05,33,11.10
2008,07,21,05,34,11.10
2008,07,21,05,35,11.10
2008,07,21,05,36,11.10
2008,07,21,05,37,11.10
2008,07,21,05,38,11.10
2008,07,21,05,39,11.10
2008,07,21,05,40,11.10
2008,07,21,05,41,11.10
2008,07,21,05,42,11.00
2008,07,21,05,43,11.00
2008,07,21,05,44,11.00
2008,07,21,05,45,11.00
2008,07,21,05,46,11.00
2008,07,21,05,47,11.00
2008,07,21,05,48,10.90
2008,07,21,05,49,10.90
2008,07,21,05,50,10.90
2008,07,21,05,51,10.90
2008,07,21,05,52,10.90
2008,07,21,05,53,10.90
2008,07,21,05,54,10.90
2008,07,21,05,55,10.90
2008,07,21,05,56,10.90
2008,07,21,05,57,10.90
2008,07,21,05,58,10.90
2008,07,21,05,59,10.90
2008,07,21,06,00,10.90
2008,07,21,06,01,10.90
2008,07,21,06,02,10.90
2008,07,21,06,03,10.90
2008,07,21,06,04,10.90
2008,07,21,06,05,10.90
2008,07,21,06,06,10.80
2008,07,21,06,07,10.80
2008,07,21,06,08,10.80
2008,07,21,06,09,10.80
2008,07,21,06,10,10.80
2008,07,21,06,11,10.80
2008,07,21,06,12,10.80
2008,07,21,06,13,10.80
2008,07,21,06,14,10.80
2008,07,21,06,15,10.80
2008,07,21,06,16,10.80
2008,07,21,06,17,10.80
2008,07,21,06,18,10.80
2008,07,21,06,19,10.80
2008,07,21,06,20,10.80
2008,07,21,06,21,10.80
2008,07,21,06,22,10.80
2008,07,21,06,23,10.80
2008,07,21,06,24,10.80
2008,07,21,06,25,10.80
2008,07,21,06,26,10.80
2008,07,21,06,27,10.80
2008,07,21,06,28,10.80
2008,07,21,06,29,10.80
2008,07,21,06,30,10.80
2008,07,21,06,31,10.90
2008,07,21,06,32,10.90
2008,07,21,06,33,10.90
2008,07,21,06,34,10.90
2008,07,21,06,35,10.90
2008,07,21,06,36,10.90
2008,07,21,06,37,10.90
2008,07,21,06,38,10.80
2008,07,21,06,39,10.80
2008,07,21,06,40,10.80
2008,07,21,06,41,10.80
2008,07,21,06,42,10.80
2008,07,21,06,43,10.80
2008,07,21,06,44,10.80
2008,07,21,06,45,10.80
2008,07,21,06,46,10.90
2008,07,21,06,47,10.90
2008,07,21,06,48,10.90
2008,07,21,06,49,10.90
2008,07,21,06,50,10.90
2008,07,21,06,51,10.90
2008,07,21,06,52,10.90
2008,07,21,06,53,10.90
2008,07,21,06,54,10.90
2008,07,21,06,55,10.90
2008,07,21,06,56,10.90
2008,07,21,06,57,10.90
2008,07,21,06,58,10.90
2008,07,21,06,59,11.00
2008,07,21,07,00,11.00
2008,07,21,07,01,11.00
2008,07,21,07,02,11.00
2008,07,21,07,03,11.00
2008,07,21,07,04,11.10
2008,07,21,07,05,11.10
2008,07,21,07,06,11.10
2008,07,21,07,07,11.10
2008,07,21,07,08,11.10
2008,07,21,07,09,11.10
2008,07,21,07,10,11.10
2008,07,21,07,11,11.20
2008,07,21,07,12,11.20
2008,07,21,07,13,11.20
2008,07,21,07,14,11.20
2008,07,21,07,15,11.20
2008,07,21,07,16,11.20
2008,07,21,07,17,11.20
2008,07,21,07,18,11.30
2008,07,21,07,19,11.30
2008,07,21,07,20,11.30
2008,07,21,07,21,11.30
2008,07,21,07,22,11.40
2008,07,21,07,23,11.40
2008,07,21,07,24,11.50
2008,07,21,07,25,11.50
2008,07,21,07,26,11.60
2008,07,21,07,27,11.60
2008,07,21,07,28,11.70
2008,07,21,07,29,11.80
2008,07,21,07,30,11.80
2008,07,21,07,31,11.90
2008,07,21,07,32,12.00
2008,07,21,07,33,12.20
2008,07,21,07,34,12.30
2008,07,21,07,35,12.40
2008,07,21,07,36,12.60
2008,07,21,07,37,12.80
2008,07,21,07,38,13.00
2008,07,21,07,39,13.20
2008,07,21,07,40,13.30
2008,07,21,07,41,13.50
2008,07,21,07,42,13.70
2008,07,21,07,43,13.80
2008,07,21,07,44,14.00
2008,07,21,07,45,14.10
2008,07,21,07,46,14.20
2008,07,21,07,47,14.30
2008,07,21,07,48,14.50
2008,07,21,07,49,14.60
2008,07,21,07,50,14.70
2008,07,21,07,51,14.90
2008,07,21,07,52,15.00
2008,07,21,07,53,15.00
2008,07,21,07,54,15.20
2008,07,21,07,55,15.40
2008,07,21,07,56,15.60
2008,07,21,07,57,15.70
2008,07,21,07,58,15.80
2008,07,21,07,59,16.00
2008,07,21,08,00,16.10
2008,07,21,08,01,16.20
2008,07,21,08,02,16.40
2008,07,21,08,03,16.60
2008,07,21,08,04,16.70
2008,07,21,08,05,16.80
2008,07,21,08,06,17.00
2008,07,21,08,07,17.20
2008,07,21,08,08,17.30
2008,07,21,08,09,17.50
2008,07,21,08,10,17.50
2008,07,21,08,11,17.60
2008,07,21,08,12,17.70
2008,07,21,08,13,17.80
2008,07,21,08,14,17.90
2008,07,21,08,15,18.00
2008,07,21,08,16,18.10
2008,07,21,08,17,18.10
2008,07,21,08,18,18.20
2008,07,21,08,19,18.30
2008,07,21,08,20,18.40
2008,07,21,08,21,18.50
2008,07,21,08,22,18.60
2008,07,21,08,23,18.70
2008,07,21,08,24,18.80
2008,07,21,08,25,18.80
2008,07,21,08,26,18.80
2008,07,21,08,27,18.80
2008,07,21,08,28,18.80
2008,07,21,08,29,18.80
2008,07,21,08,30,18.90
2008,07,21,08,31,18.90
2008,07,21,08,32,18.90
2008,07,21,08,33,18.90
2008,07,21,08,34,18.90
2008,07,21,08,35,19.00
2008,07,21,08,36,19.10
2008,07,21,08,37,19.10
2008,07,21,08,38,19.20
2008,07,21,08,39,19.20
2008,07,21,08,40,19.20
2008,07,21,08,41,19.20
2008,07,21,08,42,19.30
2008,07,21,08,43,19.20
2008,07,21,08,44,19.10
2008,07,21,08,45,19.00
2008,07,21,08,46,19.00
2008,07,21,08,47,19.00
2008,07,21,08,48,19.10
2008,07,21,08,49,19.10
2008,07,21,08,50,19.20
2008,07,21,08,51,19.30
2008,07,21,08,52,19.30
2008,07,21,08,53,19.30
2008,07,21,08,54,19.30
2008,07,21,08,55,19.40
2008,07,21,08,56,19.40
2008,07,21,08,57,19.40
2008,07,21,08,58,19.40
2008,07,21,08,59,19.40
2008,07,21,09,00,19.40
2008,07,21,09,01,19.40
2008,07,21,09,02,19.40
2008,07,21,09,03,19.50
2008,07,21,09,04,19.60
2008,07,21,09,05,19.60
2008,07,21,09,06,19.70
2008,07,21,09,07,19.80
2008,07,21,09,08,19.80
2008,07,21,09,09,19.80
2008,07,21,09,10,19.90
2008,07,21,09,11,20.00
2008,07,21,09,12,20.00
2008,07,21,09,13,20.10
2008,07,21,09,14,20.10
2008,07,21,09,15,20.10
2008,07,21,09,16,20.20
2008,07,21,09,17,20.20
2008,07,21,09,18,20.30
2008,07,21,09,19,20.30
2008,07,21,09,20,20.40
2008,07,21,09,21,20.40
2008,07,21,09,22,20.40
2008,07,21,09,23,20.30
2008,07,21,09,24,20.20
2008,07,21,09,25,20.20
2008,07,21,09,26,20.20
2008,07,21,09,27,20.30
2008,07,21,09,28,20.30
2008,07,21,09,29,20.30
2008,07,21,09,30,20.40
2008,07,21,09,31,20.50
2008,07,21,09,32,20.50
2008,07,21,09,33,20.60
2008,07,21,09,34,20.60
2008,07,21,09,35,20.50
2008,07,21,09,36,20.50
2008,07,21,09,37,20.50
2008,07,21,09,38,20.50
2008,07,21,09,39,20.60
2008,07,21,09,40,20.70
2008,07,21,09,41,20.70
2008,07,21,09,42,20.80
2008,07,21,09,43,20.90
2008,07,21,09,44,21.00
2008,07,21,09,45,21.10
2008,07,21,09,46,21.20
2008,07,21,09,47,21.20
2008,07,21,09,48,21.20
2008,07,21,09,49,21.20
2008,07,21,09,50,21.20
2008,07,21,09,51,21.20
2008,07,21,09,52,21.30
2008,07,21,09,53,21.30
2008,07,21,09,54,21.20
2008,07,21,09,55,21.00
2008,07,21,09,56,20.90
2008,07,21,09,57,20.80
2008,07,21,09,58,20.90
2008,07,21,09,59,20.90
2008,07,21,10,00,20.90
2008,07,21,10,01,20.90
2008,07,21,10,02,20.90
2008,07,21,10,03,20.90
2008,07,21,10,04,21.00
2008,07,21,10,05,21.00
2008,07,21,10,06,21.10
2008,07,21,10,07,21.20
2008,07,21,10,08,21.30
2008,07,21,10,09,21.30
2008,07,21,10,10,21.30
2008,07,21,10,11,21.40
2008,07,21,10,12,21.40
2008,07,21,10,13,21.40
2008,07,21,10,14,21.30
2008,07,21,10,15,21.30
2008,07,21,10,16,21.20
2008,07,21,10,17,21.00
2008,07,21,10,18,21.00
2008,07,21,10,19,20.90
2008,07,21,10,20,21.00
2008,07,21,10,21,21.10
2008,07,21,10,22,21.10
2008,07,21,10,23,21.20
2008,07,21,10,24,21.30
2008,07,21,10,25,21.40
2008,07,21,10,26,21.50
2008,07,21,10,27,21.60
2008,07,21,10,28,21.60
2008,07,21,10,29,21.70
2008,07,21,10,30,21.70
2008,07,21,10,31,21.60
2008,07,21,10,32,21.70
2008,07,21,10,33,21.60
2008,07,21,10,34,21.60
2008,07,21,10,35,21.50
2008,07,21,10,36,21.50
2008,07,21,10,37,21.40
2008,07,21,10,38,21.30
2008,07,21,10,39,21.30
2008,07,21,10,40,21.10
2008,07,21,10,41,21.10
2008,07,21,10,42,21.20
2008,07,21,10,43,21.20
2008,07,21,10,44,21.20
2008,07,21,10,45,21.30
2008,07,21,10,46,21.30
2008,07,21,10,47,21.40
2008,07,21,10,48,21.30
2008,07,21,10,49,21.40
2008,07,21,10,50,21.40
2008,07,21,10,51,21.30
2008,07,21,10,52,21.20
2008,07,21,10,53,21.20
2008,07,21,10,54,21.30
2008,07,21,10,55,21.30
2008,07,21,10,56,21.40
2008,07,21,10,57,21.50
2008,07,21,10,58,21.50
2008,07,21,10,59,21.50
2008,07,21,11,00,21.60
2008,07,21,11,01,21.60
2008,07,21,11,02,21.50
2008,07,21,11,03,21.40
2008,07,21,11,04,21.30
2008,07,21,11,05,21.30
2008,07,21,11,06,21.30
2008,07,21,11,07,21.30
2008,07,21,11,08,21.30
2008,07,21,11,09,21.30
2008,07,21,11,10,21.30
2008,07,21,11,11,21.30
2008,07,21,11,12,21.20
2008,07,21,11,13,21.20
2008,07,21,11,14,21.20
2008,07,21,11,15,21.20
2008,07,21,11,16,21.10
2008,07,21,11,17,21.00
2008,07,21,11,18,21.00
2008,07,21,11,19,21.10
2008,07,21,11,20,21.00
2008,07,21,11,21,20.80
2008,07,21,11,22,20.70
2008,07,21,11,23,20.70
2008,07,21,11,24,20.70
2008,07,21,11,25,20.70
2008,07,21,11,26,20.70
2008,07,21,11,27,20.80
2008,07,21,11,28,20.80
2008,07,21,11,29,20.90
2008,07,21,11,30,21.00
2008,07,21,11,31,21.10
2008,07,21,11,32,21.20
2008,07,21,11,33,21.30
2008,07,21,11,34,21.40
2008,07,21,11,35,21.50
2008,07,21,11,36,21.60
2008,07,21,11,37,21.70
2008,07,21,11,38,21.90
2008,07,21,11,39,22.00
2008,07,21,11,40,22.10
2008,07,21,11,41,22.10
2008,07,21,11,42,22.10
2008,07,21,11,43,22.10
2008,07,21,11,44,22.20
2008,07,21,11,45,22.20
2008,07,21,11,46,22.20
2008,07,21,11,47,22.20
2008,07,21,11,48,22.30
2008,07,21,11,49,22.40
2008,07,21,11,50,22.40
2008,07,21,11,51,22.40
2008,07,21,11,52,22.40
2008,07,21,11,53,22.30
2008,07,21,11,54,22.30
2008,07,21,11,55,22.20
2008,07,21,11,56,22.20
2008,07,21,11,57,22.10
2008,07,21,11,58,22.00
2008,07,21,11,59,22.00
2008,07,21,12,00,22.10
2008,07,21,12,01,22.10
2008,07,21,12,02,22.00
2008,07,21,12,03,22.00
2008,07,21,12,04,21.90
2008,07,21,12,05,21.80
2008,07,21,12,06,21.70
2008,07,21,12,07,21.70
2008,07,21,12,08,21.80
2008,07,21,12,09,21.90
2008,07,21,12,10,22.00
2008,07,21,12,11,22.10
2008,07,21,12,12,22.20
2008,07,21,12,13,22.20
2008,07,21,12,14,22.30
2008,07,21,12,15,22.30
2008,07,21,12,16,22.40
2008,07,21,12,17,22.40
2008,07,21,12,18,22.50
2008,07,21,12,19,22.60
2008,07,21,12,20,22.70
2008,07,21,12,21,22.70
2008,07,21,12,22,22.80
2008,07,21,12,23,22.80
2008,07,21,12,24,22.80
2008,07,21,12,25,22.90
2008,07,21,12,26,22.90
2008,07,21,12,27,22.80
2008,07,21,12,28,22.70
2008,07,21,12,29,22.70
2008,07,21,12,30,22.70
2008,07,21,12,31,22.80
2008,07,21,12,32,22.70
2008,07,21,12,33,22.70
2008,07,21,12,34,22.80
2008,07,21,12,35,22.90
2008,07,21,12,36,22.80
2008,07,21,12,37,22.70
2008,07,21,12,38,22.60
2008,07,21,12,39,22.50
2008,07,21,12,40,22.50
2008,07,21,12,41,22.50
2008,07,21,12,42,22.60
2008,07,21,12,43,22.70
2008,07,21,12,44,22.70
2008,07,21,12,45,22.80
2008,07,21,12,46,22.80
2008,07,21,12,47,22.90
2008,07,21,12,48,23.00
2008,07,21,12,49,23.10
2008,07,21,12,50,23.10
2008,07,21,12,51,23.00
2008,07,21,12,52,23.00
2008,07,21,12,53,23.10
2008,07,21,12,54,23.10
2008,07,21,12,55,23.10
2008,07,21,12,56,23.10
2008,07,21,12,57,23.10
2008,07,21,12,58,23.10
2008,07,21,12,59,23.00
2008,07,21,13,00,22.90
2008,07,21,13,01,22.80
2008,07,21,13,02,22.70
2008,07,21,13,03,22.70
2008,07,21,13,04,22.70
2008,07,21,13,05,22.70
2008,07,21,13,06,22.80
2008,07,21,13,07,22.80
2008,07,21,13,08,22.80
2008,07,21,13,09,22.90
2008,07,21,13,10,23.00
2008,07,21,13,11,23.00
2008,07,21,13,12,23.00
2008,07,21,13,13,23.00
2008,07,21,13,14,23.00
2008,07,21,13,15,22.90
2008,07,21,13,16,22.80
2008,07,21,13,17,22.70
2008,07,21,13,18,22.60
2008,07,21,13,19,22.50
2008,07,21,13,20,22.50
2008,07,21,13,21,22.50
2008,07,21,13,22,22.50
2008,07,21,13,23,22.60
2008,07,21,13,24,22.70
2008,07,21,13,25,22.80
2008,07,21,13,26,22.90
2008,07,21,13,27,23.00
2008,07,21,13,28,23.20
2008,07,21,13,29,23.30
2008,07,21,13,30,23.40
2008,07,21,13,31,23.40
2008,07,21,13,32,23.50
2008,07,21,13,33,23.60
2008,07,21,13,34,23.50
2008,07,21,13,35,23.40
2008,07,21,13,36,23.40
2008,07,21,13,37,23.30
2008,07,21,13,38,23.30
2008,07,21,13,39,23.30
2008,07,21,13,40,23.40
2008,07,21,13,41,23.40
2008,07,21,13,42,23.40
2008,07,21,13,43,23.30
2008,07,21,13,44,23.40
2008,07,21,13,45,23.40
2008,07,21,13,46,23.40
2008,07,21,13,47,23.50
2008,07,21,13,48,23.50
2008,07,21,13,49,23.40
2008,07,21,13,50,23.40
2008,07,21,13,51,23.30
2008,07,21,13,52,23.20
2008,07,21,13,53,23.10
2008,07,21,13,54,23.10
2008,07,21,13,55,23.20
2008,07,21,13,56,23.30
2008,07,21,13,57,23.40
2008,07,21,13,58,23.50
2008,07,21,13,59,23.50
2008,07,21,14,00,23.50
2008,07,21,14,01,23.60
2008,07,21,14,02,23.60
2008,07,21,14,03,23.60
2008,07,21,14,04,23.50
2008,07,21,14,05,23.50
2008,07,21,14,06,23.60
2008,07,21,14,07,23.60
2008,07,21,14,08,23.60
2008,07,21,14,09,23.60
2008,07,21,14,10,23.60
2008,07,21,14,11,23.60
2008,07,21,14,12,23.60
2008,07,21,14,13,23.70
2008,07,21,14,14,23.70
2008,07,21,14,15,23.50
2008,07,21,14,16,23.50
2008,07,21,14,17,23.60
2008,07,21,14,18,23.60
2008,07,21,14,19,23.60
2008,07,21,14,20,23.60
2008,07,21,14,21,23.50
2008,07,21,14,22,23.50
2008,07,21,14,23,23.60
2008,07,21,14,24,23.60
2008,07,21,14,25,23.50
2008,07,21,14,26,23.50
2008,07,21,14,27,23.50
2008,07,21,14,28,23.60
2008,07,21,14,29,23.50
2008,07,21,14,30,23.40
2008,07,21,14,31,23.40
2008,07,21,14,32,23.40
2008,07,21,14,33,23.50
2008,07,21,14,34,23.60
2008,07,21,14,35,23.70
2008,07,21,14,36,23.80
2008,07,21,14,37,23.90
2008,07,21,14,38,23.80
2008,07,21,14,39,23.90
2008,07,21,14,40,24.00
2008,07,21,14,41,24.10
2008,07,21,14,42,24.20
2008,07,21,14,43,24.20
2008,07,21,14,44,24.20
2008,07,21,14,45,24.10
2008,07,21,14,46,24.00
2008,07,21,14,47,23.90
2008,07,21,14,48,23.80
2008,07,21,14,49,23.70
2008,07,21,14,50,23.60
2008,07,21,14,51,23.60
2008,07,21,14,52,23.50
2008,07,21,14,53,23.40
2008,07,21,14,54,23.40
2008,07,21,14,55,23.40
2008,07,21,14,56,23.40
2008,07,21,14,57,23.50
2008,07,21,14,58,23.50
2008,07,21,14,59,23.60
2008,07,21,15,00,23.60
2008,07,21,15,01,23.60
2008,07,21,15,02,23.80
2008,07,21,15,03,23.80
2008,07,21,15,04,23.80
2008,07,21,15,05,23.80
2008,07,21,15,06,23.80
2008,07,21,15,07,23.80
2008,07,21,15,08,23.60
2008,07,21,15,09,23.40
2008,07,21,15,10,23.30
2008,07,21,15,11,23.30
2008,07,21,15,12,23.30
2008,07,21,15,13,23.30
2008,07,21,15,14,23.40
2008,07,21,15,15,23.40
2008,07,21,15,16,23.40
2008,07,21,15,17,23.40
2008,07,21,15,18,23.40
2008,07,21,15,19,23.40
2008,07,21,15,20,23.40
2008,07,21,15,21,23.40
2008,07,21,15,22,23.40
2008,07,21,15,23,23.40
2008,07,21,15,24,23.50
2008,07,21,15,25,23.50
2008,07,21,15,26,23.40
2008,07,21,15,27,23.40
2008,07,21,15,28,23.40
2008,07,21,15,29,23.40
2008,07,21,15,30,23.40
2008,07,21,15,31,23.40
2008,07,21,15,32,23.30
2008,07,21,15,33,23.30
2008,07,21,15,34,23.30
2008,07,21,15,35,23.30
2008,07,21,15,36,23.30
2008,07,21,15,37,23.40
2008,07,21,15,38,23.50
2008,07,21,15,39,23.50
2008,07,21,15,40,23.40
2008,07,21,15,41,23.40
2008,07,21,15,42,23.50
2008,07,21,15,43,23.50
2008,07,21,15,44,23.50
2008,07,21,15,45,23.40
2008,07,21,15,46,23.40
2008,07,21,15,47,23.30
2008,07,21,15,48,23.20
2008,07,21,15,49,23.20
2008,07,21,15,50,23.20
2008,07,21,15,51,23.20
2008,07,21,15,52,23.20
2008,07,21,15,53,23.30
2008,07,21,15,54,23.30
2008,07,21,15,55,23.30
2008,07,21,15,56,23.30
2008,07,21,15,57,23.30
2008,07,21,15,58,23.30
2008,07,21,15,59,23.30
2008,07,21,16,00,23.40
2008,07,21,16,01,23.40
2008,07,21,16,02,23.40
2008,07,21,16,03,23.30
2008,07,21,16,04,23.30
2008,07,21,16,05,23.30
2008,07,21,16,06,23.30
2008,07,21,16,07,23.30
2008,07,21,16,08,23.20
2008,07,21,16,09,23.20
2008,07,21,16,10,23.10
2008,07,21,16,11,23.10
2008,07,21,16,12,23.10
2008,07,21,16,13,23.10
2008,07,21,16,14,23.20
2008,07,21,16,15,23.30
2008,07,21,16,16,23.30
2008,07,21,16,17,23.30
2008,07,21,16,18,23.30
2008,07,21,16,19,23.30
2008,07,21,16,20,23.30
2008,07,21,16,21,23.30
2008,07,21,16,22,23.30
2008,07,21,16,23,23.30
2008,07,21,16,24,23.20
2008,07,21,16,25,23.10
2008,07,21,16,26,23.00
2008,07,21,16,27,23.00
2008,07,21,16,28,22.90
2008,07,21,16,29,22.90
2008,07,21,16,30,22.90
2008,07,21,16,31,22.90
2008,07,21,16,32,23.00
2008,07,21,16,33,23.00
2008,07,21,16,34,23.10
2008,07,21,16,35,23.20
2008,07,21,16,36,23.20
2008,07,21,16,37,23.20
2008,07,21,16,38,23.30
2008,07,21,16,39,23.30
2008,07,21,16,40,23.30
2008,07,21,16,41,23.30
2008,07,21,16,42,23.30
2008,07,21,16,43,23.20
2008,07,21,16,44,23.20
2008,07,21,16,45,23.20
2008,07,21,16,46,23.20
2008,07,21,16,47,23.10
2008,07,21,16,48,23.10
2008,07,21,16,49,23.00
2008,07,21,16,50,23.00
2008,07,21,16,51,22.90
2008,07,21,16,52,22.90
2008,07,21,16,53,22.90
2008,07,21,16,54,23.00
2008,07,21,16,55,23.10
2008,07,21,16,56,23.10
2008,07,21,16,57,23.20
2008,07,21,16,58,23.20
2008,07,21,16,59,23.30
2008,07,21,17,00,23.30
2008,07,21,17,01,23.30
2008,07,21,17,02,23.30
2008,07,21,17,03,23.20
2008,07,21,17,04,23.20
2008,07,21,17,05,23.10
2008,07,21,17,06,23.10
2008,07,21,17,07,23.10
2008,07,21,17,08,23.10
2008,07,21,17,09,23.10
2008,07,21,17,10,23.10
2008,07,21,17,11,23.10
2008,07,21,17,12,23.10
2008,07,21,17,13,23.10
2008,07,21,17,14,23.10
2008,07,21,17,15,23.10
2008,07,21,17,16,23.10
2008,07,21,17,17,23.10
2008,07,21,17,18,23.00
2008,07,21,17,19,23.00